When you browse on this site, cookies collect data to enhance your experience and personalize the content and advertising you see.
Visit our Privacy Policy to learn more. By continuing to use the site, you agree to this use of cookies and data.
  • In Hungary
  • List of Countries
  • For 7 days
  • Water Temperature
  • Weather Map
  • News
  • Weather Widgets
  • user-avatar
    Login

    Hourly Weather Bussum

    Today, 18 August, Sunday

    Time Temperature Precipitation Wind Pressure Humidity
    00:00 +16°C° 0 mm 2 mps 753 mmHg 88%
    01:00 +16°C° 0 mm 3 mps 753 mmHg 88%
    02:00 +16°C° 0 mm 3 mps 753 mmHg 88%
    03:00 +15°C° 0 mm 4 mps 752 mmHg 88%
    04:00 +15°C° 0.3 mm 4 mps 752 mmHg 90%
    05:00 +16°C° 0.3 mm 3 mps 752 mmHg 91%
    06:00 +15°C° 0 mm 4 mps 752 mmHg 89%
    07:00 +15°C° 0.2 mm 4 mps 752 mmHg 90%
    08:00 +15°C° 0.2 mm 4 mps 752 mmHg 90%
    09:00 +15°C° 0.2 mm 4 mps 752 mmHg 90%
    10:00 +17°C° 0.1 mm 3 mps 752 mmHg 88%
    11:00 +17°C° 0.1 mm 3 mps 752 mmHg 85%
    12:00 +18°C° 0.1 mm 3 mps 752 mmHg 83%
    13:00 +18°C° 0.2 mm 3 mps 752 mmHg 81%
    14:00 +19°C° 0.2 mm 4 mps 753 mmHg 79%
    15:00 +20°C° 0.2 mm 4 mps 753 mmHg 76%
    16:00 +19°C° 0 mm 4 mps 753 mmHg 76%
    17:00 +19°C° 0 mm 4 mps 753 mmHg 76%
    18:00 +19°C° 0 mm 4 mps 754 mmHg 76%
    19:00 +18°C° 0 mm 4 mps 754 mmHg 77%
    20:00 +17°C° 0 mm 4 mps 755 mmHg 78%
    21:00 +15°C° 0 mm 5 mps 755 mmHg 79%
    22:00 +15°C° 0.1 mm 5 mps 755 mmHg 80%
    23:00 +14°C° 0.1 mm 5 mps 756 mmHg 81%

    Tomorrow, 19 August, Monday

    Time Temperature Precipitation Wind Pressure Humidity
    00:00 +14°C° 0.1 mm 5 mps 756 mmHg 82%
    01:00 +14°C° 0.1 mm 5 mps 756 mmHg 82%
    02:00 +14°C° 0.1 mm 5 mps 756 mmHg 83%
    03:00 +14°C° 0.1 mm 5 mps 756 mmHg 83%
    04:00 +14°C° 0 mm 5 mps 757 mmHg 82%
    05:00 +14°C° 0 mm 5 mps 757 mmHg 81%
    06:00 +15°C° 0 mm 5 mps 758 mmHg 79%
    07:00 +16°C° 0.1 mm 6 mps 758 mmHg 73%
    08:00 +17°C° 0.1 mm 7 mps 758 mmHg 66%
    09:00 +20°C° 0.1 mm 7 mps 759 mmHg 60%
    10:00 +20°C° 0.1 mm 7 mps 759 mmHg 59%
    11:00 +20°C° 0.1 mm 7 mps 759 mmHg 57%
    12:00 +21°C° 0.1 mm 7 mps 760 mmHg 56%
    13:00 +21°C° 0.1 mm 7 mps 760 mmHg 54%
    14:00 +21°C° 0.1 mm 6 mps 760 mmHg 52%
    15:00 +21°C° 0.1 mm 6 mps 760 mmHg 50%
    16:00 +20°C° 0 mm 5 mps 760 mmHg 56%
    17:00 +19°C° 0 mm 4 mps 760 mmHg 62%
    18:00 +19°C° 0 mm 3 mps 760 mmHg 67%
    19:00 +18°C° 0 mm 3 mps 761 mmHg 71%
    20:00 +17°C° 0 mm 3 mps 761 mmHg 75%
    21:00 +16°C° 0 mm 3 mps 761 mmHg 79%
    22:00 +14°C° 0 mm 4 mps 761 mmHg 81%
    23:00 +14°C° 0 mm 4 mps 761 mmHg 83%

    Day after tomorrow, 20 August, Tuesday

    Time Temperature Precipitation Wind Pressure Humidity
    00:00 +14°C° 0 mm 4 mps 761 mmHg 85%
    01:00 +14°C° 0 mm 4 mps 762 mmHg 86%
    02:00 +13°C° 0 mm 4 mps 762 mmHg 87%
    03:00 +13°C° 0 mm 4 mps 762 mmHg 88%
    04:00 +14°C° 0 mm 3 mps 762 mmHg 86%
    05:00 +14°C° 0 mm 3 mps 763 mmHg 83%
    06:00 +14°C° 0 mm 3 mps 763 mmHg 80%
    07:00 +17°C° 0 mm 4 mps 763 mmHg 74%
    08:00 +18°C° 0 mm 4 mps 764 mmHg 67%
    09:00 +19°C° 0 mm 4 mps 764 mmHg 60%
    10:00 +20°C° 0 mm 4 mps 764 mmHg 56%
    11:00 +20°C° 0 mm 5 mps 765 mmHg 53%
    12:00 +21°C° 0 mm 5 mps 765 mmHg 50%
    13:00 +21°C° 0 mm 5 mps 765 mmHg 51%
    14:00 +21°C° 0 mm 5 mps 765 mmHg 51%
    15:00 +20°C° 0 mm 5 mps 765 mmHg 52%
    16:00 +19°C° 0 mm 4 mps 766 mmHg 57%
    17:00 +18°C° 0 mm 3 mps 766 mmHg 61%
    18:00 +17°C° 0 mm 3 mps 766 mmHg 66%
    19:00 +16°C° 0 mm 2 mps 767 mmHg 69%
    20:00 +15°C° 0 mm 2 mps 767 mmHg 71%
    21:00 +14°C° 0 mm 2 mps 768 mmHg 74%
    22:00 +14°C° 0 mm 2 mps 768 mmHg 75%
    23:00 +13°C° 0 mm 2 mps 768 mmHg 76%

    21 August, Wednesday

    Time Temperature Precipitation Wind Pressure Humidity
    00:00 +13°C° 0 mm 2 mps 768 mmHg 77%
    01:00 +13°C° 0 mm 2 mps 768 mmHg 78%
    02:00 +13°C° 0 mm 2 mps 768 mmHg 79%
    03:00 +13°C° 0 mm 2 mps 768 mmHg 80%
    04:00 +13°C° 0 mm 2 mps 768 mmHg 80%
    05:00 +13°C° 0 mm 2 mps 769 mmHg 81%
    06:00 +13°C° 0 mm 3 mps 769 mmHg 81%
    07:00 +14°C° 0 mm 3 mps 769 mmHg 75%
    08:00 +17°C° 0 mm 3 mps 769 mmHg 69%
    09:00 +19°C° 0 mm 3 mps 769 mmHg 63%
    10:00 +20°C° 0 mm 2 mps 769 mmHg 59%
    11:00 +21°C° 0 mm 2 mps 769 mmHg 54%
    12:00 +21°C° 0 mm 2 mps 769 mmHg 49%
    13:00 +23°C° 0 mm 2 mps 769 mmHg 49%
    14:00 +23°C° 0 mm 2 mps 768 mmHg 49%
    15:00 +23°C° 0 mm 2 mps 768 mmHg 49%
    16:00 +22°C° 0 mm 1 mps 768 mmHg 54%
    17:00 +21°C° 0 mm 1 mps 768 mmHg 59%
    18:00 +20°C° 0 mm 1 mps 768 mmHg 64%
    19:00 +19°C° 0 mm 1 mps 768 mmHg 67%
    20:00 +16°C° 0 mm 1 mps 768 mmHg 70%
    21:00 +15°C° 0 mm 1 mps 768 mmHg 73%
    22:00 +15°C° 0 mm 1 mps 768 mmHg 72%
    23:00 +15°C° 0 mm 1 mps 768 mmHg 72%

    22 August, Thursday

    Time Temperature Precipitation Wind Pressure Humidity
    00:00 +14°C° 0 mm 2 mps 768 mmHg 72%
    01:00 +14°C° 0 mm 2 mps 767 mmHg 71%
    02:00 +14°C° 0 mm 2 mps 767 mmHg 70%
    03:00 +14°C° 0 mm 2 mps 767 mmHg 69%
    04:00 +14°C° 0 mm 2 mps 767 mmHg 69%
    05:00 +14°C° 0 mm 2 mps 767 mmHg 70%
    06:00 +15°C° 0 mm 2 mps 767 mmHg 70%
    07:00 +16°C° 0 mm 2 mps 767 mmHg 66%
    08:00 +18°C° 0 mm 2 mps 768 mmHg 63%
    09:00 +20°C° 0 mm 2 mps 768 mmHg 60%
    10:00 +21°C° 0 mm 3 mps 768 mmHg 55%
    11:00 +22°C° 0 mm 3 mps 768 mmHg 51%
    12:00 +24°C° 0 mm 3 mps 768 mmHg 46%
    13:00 +24°C° 0 mm 3 mps 768 mmHg 46%
    14:00 +24°C° 0 mm 3 mps 768 mmHg 46%
    15:00 +24°C° 0 mm 3 mps 768 mmHg 45%
    16:00 +21°C° 0 mm 2 mps 768 mmHg 52%
    17:00 +20°C° 0 mm 2 mps 768 mmHg 59%
    18:00 +20°C° 0 mm 1 mps 768 mmHg 65%
    19:00 +18°C° 0 mm 1 mps 768 mmHg 70%
    20:00 +16°C° 0 mm 1 mps 768 mmHg 76%
    21:00 +15°C° 0 mm 1 mps 768 mmHg 81%
    22:00 +15°C° 0 mm 1 mps 768 mmHg 81%
    23:00 +14°C° 0 mm 2 mps 768 mmHg 82%

    23 August, Friday

    Time Temperature Precipitation Wind Pressure Humidity
    00:00 +14°C° 0 mm 2 mps 768 mmHg 82%
    01:00 +14°C° 0 mm 2 mps 768 mmHg 82%
    02:00 +14°C° 0 mm 2 mps 767 mmHg 81%
    03:00 +14°C° 0 mm 2 mps 767 mmHg 81%
    04:00 +14°C° 0 mm 1 mps 767 mmHg 80%
    05:00 +15°C° 0 mm 1 mps 767 mmHg 79%
    06:00 +15°C° 0 mm 1 mps 767 mmHg 78%
    07:00 +18°C° 0 mm 1 mps 767 mmHg 70%
    08:00 +21°C° 0 mm 1 mps 767 mmHg 63%
    09:00 +23°C° 0 mm 1 mps 767 mmHg 56%
    10:00 +24°C° 0 mm 2 mps 767 mmHg 52%
    11:00 +25°C° 0 mm 2 mps 767 mmHg 49%
    12:00 +27°C° 0 mm 2 mps 767 mmHg 45%
    13:00 +27°C° 0 mm 2 mps 766 mmHg 45%
    14:00 +27°C° 0 mm 2 mps 766 mmHg 46%
    15:00 +27°C° 0 mm 2 mps 766 mmHg 46%
    16:00 +26°C° 0 mm 2 mps 765 mmHg 52%
    17:00 +25°C° 0 mm 2 mps 765 mmHg 58%
    18:00 +23°C° 0 mm 2 mps 765 mmHg 64%
    19:00 +21°C° 0 mm 2 mps 765 mmHg 65%
    20:00 +20°C° 0 mm 3 mps 765 mmHg 66%
    21:00 +19°C° 0 mm 3 mps 765 mmHg 67%
    22:00 +19°C° 0 mm 3 mps 765 mmHg 68%
    23:00 +18°C° 0 mm 3 mps 764 mmHg 69%
    Show more